Location: Chmeli�t?
(49.8978°N, 15.0526°E)
Time: 08:14:02
(UTC+00:00)

Cosmos 2074 Rocket - Pass Details

Date: 09 October 2020
Orbit: 967 x 987 km, 82.9° (Epoch: 30 October)

Event Time Altitude Azimuth Distance (km) Brightness Sun altitude
Rises 20:47:58 0° 351° (N) 3,690 7.7 -40.1°
Reaches altitude 10° 20:50:31 10° 354° (N) 2,735 6.8 -40.4°
Enters shadow 20:52:54 25° 359° (N) 1,885 5.8 -40.6°
